Regional Weather Roundup
Issued by NWS

Home | Current Version | Previous Version | Graphics & Text | Print | Product List | Glossary On
Versions: 1 2 3 4 5 6 7 8 9 10 11 12 13 14 15 16 17 18 19 20 21 22 23 24 25 26 27 28 29 30 31 32 33 34 35 36 37 38 39 40 41 42 43 44 45 46 47 48 49 50
598
ASUS43 KBIS 290910
RWRND

NORTH DAKOTA REGIONAL WEATHER ROUNDUP
NATIONAL WEATHER SERVICE BISMARCK ND
400 AM CDT SUN MAY 29 2016

NOTE: "FAIR" INDICATES FEW OR NO CLOUDS BELOW 12,000 FEET WITH NO
SIGNIFICANT WEATHER AND/OR OBSTRUCTIONS TO VISIBILITY.


NDZ001>003-009>011-017-291000-
NORTHWEST NORTH DAKOTA

CITY           SKY/WX    TMP DP  RH WIND       PRES   REMARKS
WILLISTON      CLEAR     44  42  93 S3        29.98R
MINOT          CLEAR     54  52  93 SW7       29.94R
MINOT AFB      CLEAR     52  51  97 SW7       29.93S
$$

NDZ018>021-031>035-040>046-291000-
SOUTHWEST NORTH DAKOTA

CITY           SKY/WX    TMP DP  RH WIND       PRES   REMARKS
BISMARCK       CLEAR     51  50  96 W3        29.98R
DICKINSON      CLOUDY    49  46  90 W7        29.99S
GARRISON         N/A     51  50  96 NW6       29.96R
HETTINGER ARPT FOG       39  39 100 CALM      30.03S VSB 1/4
$$

NDZ004>008-012>016-024-026-027-054-291000-
NORTHEAST NORTH DAKOTA

CITY           SKY/WX    TMP DP  RH WIND       PRES   REMARKS
GRAND FORKS    CLOUDY    59  57  93 W5        29.87R
GRND FRKS AFB  CLOUDY    58  58 100 NW3       29.88S
DEVILS LAKE    CLOUDY    58  56  93 N6        29.92S
$$

NDZ022-023-025-028>030-036>039-047>053-291000-
SOUTHEAST NORTH DAKOTA

CITY           SKY/WX    TMP DP  RH WIND       PRES   REMARKS
FARGO          CLOUDY    60  57  89 W6        29.88R
JAMESTOWN      PTCLDY    55  54  96 W5        29.91R
$$





USA.gov is the U.S. government's official web portal to all federal, state and local government web resources and services.